Change the Weather History Date:

Saturday, October 6, 2012

  Actual Average Record
Temperature  
Mean Temperature 73 °F -  
Max Temperature 84 °F 82 °F 100 °F (1954)
Min Temperature 62 °F 56 °F 42 °F (1932)
Cooling Degree Days 8    
Growing Degree Days 23 (Base 50)    
Moisture  
Dew Point 64 °F    
Average Humidity 83    
Maximum Humidity 100    
Minimum Humidity 43    
Precipitation  
Precipitation 0.01 in - - ()
Sea Level Pressure  
Sea Level Pressure 30.00 in    
Wind  
Wind Speed 2 mph (NNW)    
Max Wind Speed 13 mph    
Max Gust Speed -    
Visibility 6 miles    
Events Fog    
Averages and records for this station are not official NWS values.
T = Trace of Precipitation, MM = Missing Value Source: NWS Daily Summary

Daily Weather History Graph

Daily Weather History Graph

Search for Another Location

Airport or City:

Trip Planner

Search our weather history database for the weather conditions in past years. The results will help you decide how hot, cold, wet, or windy it might be!

Date:

Astronomy

Oct. 06, 2012 Rise Set
Actual Time 6:43 AM CDT 6:24 PM CDT
Civil Twilight 6:19 AM CDT 6:48 PM CDT
Nautical Twilight 5:51 AM CDT 7:17 PM CDT
Astronomical Twilight 5:22 AM CDT 7:45 PM CDT
Moon 10:55 PM CDT (10/6) 12:21 PM CDT (10/6)
Length of Visible Light 12h 29m
Length of Day
11h 40m
Waning Gibbous, 65% of the Moon is Illuminated
Oct 6
Waning Gibbous
Oct 8
Last Quarter
Oct 15
New
Oct 21
First Quarter
Oct 29
Full

Hourly Weather History & Observations

Time (CDT) Temp. Heat Index Dew Point Humidity Pressure Visibility Wind Dir Wind Speed Gust Speed Precip Events Conditions
12:56 AM 64.9 °F - 64.0 °F 97% 30.03 in 8.0 mi Calm Calm - N/A   Scattered Clouds
1:03 AM 66.2 °F - 64.4 °F 94% 30.04 in 7.0 mi Calm Calm - N/A   Mostly Cloudy
1:12 AM 66.2 °F - 64.4 °F 94% 30.04 in 7.0 mi Calm Calm - N/A   Mostly Cloudy
1:56 AM 66.0 °F - 64.0 °F 93% 30.01 in 9.0 mi Calm Calm - N/A   Scattered Clouds
2:16 AM 66.2 °F - 64.4 °F 94% 30.02 in 7.0 mi Calm Calm - N/A   Mostly Cloudy
2:27 AM 64.4 °F - 62.6 °F 94% 30.01 in 1.2 mi ESE 3.5 mph - N/A   Mostly Cloudy
2:35 AM 64.4 °F - 64.4 °F 100% 30.01 in 0.5 mi Calm Calm - N/A Fog Fog
2:56 AM 64.9 °F - 64.9 °F 100% 29.99 in 0.2 mi Calm Calm - N/A Fog Fog
3:08 AM 64.4 °F - 64.4 °F 100% 30.00 in 0.5 mi Calm Calm - N/A Fog Fog
3:42 AM 66.2 °F - 64.4 °F 94% 30.00 in 0.8 mi Calm Calm - N/A   Overcast
3:46 AM 66.2 °F - 66.2 °F 100% 30.00 in 0.8 mi Calm Calm - N/A   Overcast
3:56 AM 66.9 °F - 66.0 °F 97% 29.98 in 0.5 mi Calm Calm - N/A Fog Fog
4:03 AM 66.2 °F - 64.4 °F 94% 30.00 in 1.5 mi Calm Calm - N/A   Overcast
4:05 AM 66.2 °F - 64.4 °F 94% 30.00 in 4.0 mi Calm Calm - N/A   Overcast
4:14 AM 64.4 °F - 64.4 °F 100% 30.00 in 9.0 mi Calm Calm - N/A   Overcast
4:56 AM 66.0 °F - 64.9 °F 96% 30.00 in 8.0 mi Calm Calm - N/A   Overcast
5:46 AM 66.2 °F - 66.2 °F 100% 30.02 in 0.8 mi Calm Calm - N/A   Overcast
5:56 AM 68.0 °F - 66.9 °F 96% 30.01 in 0.2 mi Calm Calm - N/A Fog Fog
6:56 AM 69.1 °F - 68.0 °F 96% 30.01 in 0.2 mi Calm Calm - N/A Fog Fog
7:56 AM 69.1 °F - 68.0 °F 96% 30.01 in 0.5 mi Calm Calm - 0.01 in Fog Fog
8:09 AM 69.8 °F - 68.0 °F 94% 30.03 in 1.2 mi Calm Calm - N/A   Overcast
8:13 AM 69.8 °F - 68.0 °F 94% 30.03 in 3.0 mi Calm Calm - N/A   Mostly Cloudy
8:26 AM 69.8 °F - 69.8 °F 100% 30.03 in 1.8 mi Calm Calm - N/A   Mostly Cloudy
8:45 AM 71.6 °F - 69.8 °F 94% 30.03 in 3.0 mi Calm Calm - N/A   Mostly Cloudy
8:56 AM 72.0 °F - 70.0 °F 93% 30.02 in 8.0 mi Calm Calm - N/A   Scattered Clouds
9:56 AM 80.1 °F 81.5 °F 63.0 °F 56% 30.02 in 10.0 mi NNW 8.1 mph - N/A   Clear
10:56 AM 82.0 °F 82.7 °F 61.0 °F 49% 30.01 in 10.0 mi NW 4.6 mph - N/A   Clear
11:56 AM 82.0 °F 83.0 °F 62.1 °F 51% 30.01 in 10.0 mi NW 6.9 mph - N/A   Partly Cloudy
12:56 PM 84.0 °F 83.8 °F 59.0 °F 43% 29.98 in 10.0 mi NE 4.6 mph - N/A   Clear
1:56 PM 82.9 °F 83.2 °F 60.1 °F 46% 29.95 in 10.0 mi Calm Calm - N/A   Clear
2:56 PM 84.9 °F 85.0 °F 61.0 °F 44% 29.93 in 10.0 mi Calm Calm - N/A   Clear
3:56 PM 84.9 °F 84.8 °F 60.1 °F 43% 29.92 in 10.0 mi NNW 3.5 mph - N/A   Clear
4:56 PM 84.0 °F 84.4 °F 61.0 °F 46% 29.92 in 10.0 mi NNW 5.8 mph - N/A   Scattered Clouds
5:56 PM 79.0 °F - 64.0 °F 60% 29.93 in 10.0 mi NW 4.6 mph - N/A   Scattered Clouds
6:56 PM 75.9 °F - 64.9 °F 69% 29.96 in 10.0 mi NW 8.1 mph - N/A   Clear
7:56 PM 73.0 °F - 64.0 °F 73% 29.98 in 10.0 mi NW 10.4 mph - N/A   Clear
8:56 PM 70.0 °F - 64.0 °F 81% 30.00 in 10.0 mi NW 9.2 mph - N/A   Clear
9:53 PM 68.0 °F - 64.4 °F 88% 30.02 in 10.0 mi NNW 9.2 mph - N/A   Scattered Clouds
9:56 PM 68.0 °F - 64.0 °F 87% 30.01 in 10.0 mi NNW 8.1 mph - N/A   Mostly Cloudy
10:56 PM 64.0 °F - 59.0 °F 84% 30.02 in 10.0 mi NNW 12.7 mph - N/A   Overcast
11:51 PM 62.6 °F - 57.2 °F 82% 30.02 in 10.0 mi North 5.8 mph - N/A   Partly Cloudy
11:56 PM 62.1 °F - 57.9 °F 86% 30.01 in 10.0 mi North 5.8 mph - N/A   Partly Cloudy